Regional Weather Roundup
Issued by NWS Goodland, KS

Home | Current Version | Previous Version | Graphics & Text | Print | Product List | Glossary On
Versions: 1 2 3 4 5 6 7 8 9 10 11 12 13 14 15 16 17 18 19 20 21 22 23 24 25 26 27 28 29 30 31 32 33 34 35 36 37 38 39 40 41 42 43 44 45 46 47 48 49 50
000
ASUS43 KGLD 162259
RWRGLD

GOODLAND FORECAST AREA HOURLY WEATHER ROUNDUP
NATIONAL WEATHER SERVICE GOODLAND KS
500 PM MDT MON OCT 16 2017

...OFFICIAL OBSERVATIONS...

CITY           SKY/WX    TMP DP  RH WIND       PRES   REMARKS
GOODLAND KS    CLOUDY    73  32  22 S14       30.11S
HILL CITY KS   SUNNY     74  33  22 S13G26    30.13S
IMPERIAL NEB   CLOUDY    77  13   9 NW8       30.09S
MCCOOK NEB     SUNNY     72  36  26 S10       30.08F
AKRON CO       NOT AVBL
BURLINGTON CO  CLOUDY    79  24  13 SW9       30.14F
LIMON CO       SUNNY     75   3   6 NW12      30.22S
$$

...UNOFFICIAL OBSERVATIONS...

CITY           SKY/WX    TMP DP  RH WIND       PRES   REMARKS
YUMA CO        FAIR      72  19  14 NW3       30.15S
$$




USA.gov is the U.S. government's official web portal to all federal, state and local government web resources and services.